Weather History for Fort Payne, AL

Change the Weather History Date:

Sunday, February 17, 2013

  Actual Average (KRMG) Record (KRMG)
Temperature  
Mean Temperature 30 °F 45 °F  
Max Temperature 44 °F 56 °F 72 °F (2011)
Min Temperature 15 °F 33 °F 18 °F (2013)
Degree Days  
Heating Degree Days 36 20  
Month to date heating degree days 372  
Since 1 July heating degree days 2414  
Moisture  
Dew Point 15 °F    
Average Humidity 60    
Maximum Humidity 93    
Minimum Humidity 24    
Precipitation  
Precipitation 0.00 in 0.18 in 1.88 in (1999)
Month to date precipitation 2.78  
Year to date precipitation 7.60  
Snow  
Snow 0.00 in - - ()
Month to date snowfall  
Since 1 July snowfall  
Snow Depth -    
Sea Level Pressure  
Sea Level Pressure 30.24 in    
Wind  
Wind Speed 1 mph (West)    
Max Wind Speed 10 mph    
Max Gust Speed 18 mph    
Visibility 10 miles    
Events      
T = Trace of Precipitation, MM = Missing Value Source: NWS Daily Summary

Daily Weather History Graph

Daily Weather History Graph

Search for Another Location

Airport:

Trip Planner

Search our weather history database for the weather conditions in past years. The results will help you decide how hot, cold, wet, or windy it might be!

Date:

Astronomy

Feb. 17, 2013 Rise Set
Actual Time 6:25 AM CST 5:28 PM CST
Civil Twilight 6:00 AM CST 5:54 PM CST
Nautical Twilight 5:30 AM CST 6:23 PM CST
Astronomical Twilight 5:01 AM CST 6:52 PM CST
Moon 10:38 AM CST (2/17) 12:04 AM CST (2/17)
Length of Visible Light 11h 53m
Length of Day
11h 02m
Waxing Crescent, 49% of the Moon is Illuminated
Feb 17
Waxing Crescent
Feb 17
First Quarter
Feb 25
Full
Mar 4
Last Quarter
Mar 11
New

Hourly Weather History & Observations

Time (CST) Temp. Windchill Dew Point Humidity Pressure Visibility Wind Dir Wind Speed Gust Speed Precip Events Conditions
12:15 AM 23.0 °F - 19.4 °F 86% 30.20 in 10.0 mi Calm Calm - N/A   Clear
12:35 AM 23.0 °F - 19.4 °F 86% 30.20 in 10.0 mi Calm Calm - N/A   Clear
12:55 AM 21.2 °F - 19.4 °F 93% 30.20 in 10.0 mi Calm Calm - N/A   Clear
1:15 AM 21.2 °F - 17.6 °F 86% 30.20 in 10.0 mi Calm Calm - N/A   Clear
1:35 AM 21.2 °F - 19.4 °F 93% 30.21 in 10.0 mi Calm Calm - N/A   Clear
1:55 AM 21.2 °F - 17.6 °F 86% 30.21 in 10.0 mi Calm Calm - N/A   Clear
2:15 AM 19.4 °F - 17.6 °F 93% 30.20 in 10.0 mi Calm Calm - N/A   Clear
2:35 AM 19.4 °F - 15.8 °F 86% 30.21 in 10.0 mi Calm Calm - N/A   Clear
2:55 AM 19.4 °F - 15.8 °F 86% 30.20 in 10.0 mi Calm Calm - N/A   Clear
3:15 AM 19.4 °F - 15.8 °F 86% 30.21 in 10.0 mi Calm Calm - N/A   Clear
3:35 AM 19.4 °F - 15.8 °F 86% 30.20 in 10.0 mi Calm Calm - N/A   Clear
3:55 AM 17.6 °F - 14.0 °F 86% 30.20 in 10.0 mi Calm Calm - N/A   Clear
4:15 AM 17.6 °F - 14.0 °F 86% 30.21 in 10.0 mi Calm Calm - N/A   Clear
4:35 AM 17.6 °F - 14.0 °F 86% 30.21 in 10.0 mi Calm Calm - N/A   Clear
4:55 AM 17.6 °F - 14.0 °F 86% 30.22 in 10.0 mi Calm Calm - N/A   Clear
5:15 AM 19.4 °F - 14.0 °F 80% 30.23 in 10.0 mi Calm Calm - N/A   Clear
5:35 AM 17.6 °F - 14.0 °F 86% 30.23 in 10.0 mi Calm Calm - N/A   Clear
5:55 AM 17.6 °F - 14.0 °F 86% 30.24 in 10.0 mi Calm Calm - N/A   Clear
6:15 AM 17.6 °F - 14.0 °F 86% 30.25 in 10.0 mi Calm Calm - N/A   Clear
6:35 AM 17.6 °F - 14.0 °F 86% 30.25 in 10.0 mi Calm Calm - N/A   Clear
6:55 AM 15.8 °F - 12.2 °F 86% 30.26 in 10.0 mi Calm Calm - N/A   Clear
7:15 AM 17.6 °F - 14.0 °F 86% 30.27 in 10.0 mi Calm Calm - N/A   Clear
7:35 AM 19.4 °F - 15.8 °F 86% 30.28 in 10.0 mi Calm Calm - N/A   Clear
7:55 AM 23.0 °F - 19.4 °F 86% 30.28 in 10.0 mi Calm Calm - N/A   Clear
8:15 AM 24.8 °F - 19.4 °F 80% 30.29 in 10.0 mi Calm Calm - N/A   Clear
8:35 AM 26.6 °F - 19.4 °F 74% 30.29 in 10.0 mi Calm Calm - N/A   Clear
8:55 AM 30.2 °F - 17.6 °F 60% 30.29 in 10.0 mi Calm Calm - N/A   Clear
9:15 AM 30.2 °F - 17.6 °F 60% 30.30 in 10.0 mi Calm Calm - N/A   Clear
9:35 AM 32.0 °F - 17.6 °F 55% 30.30 in 10.0 mi Calm Calm - N/A   Clear
9:55 AM 33.8 °F - 17.6 °F 52% 30.30 in 10.0 mi Calm Calm - N/A   Clear
10:15 AM 33.8 °F - 14.0 °F 44% 30.30 in 10.0 mi Calm Calm - N/A   Clear
10:35 AM 37.4 °F - 10.4 °F 33% 30.29 in 10.0 mi Calm Calm - N/A   Clear
10:55 AM 37.4 °F 32.8 °F 6.8 °F 28% 30.29 in 10.0 mi WNW 5.8 mph - N/A   Clear
11:15 AM 39.2 °F 35.0 °F 6.8 °F 26% 30.28 in 10.0 mi West 5.8 mph - N/A   Clear
11:35 AM 41.0 °F 36.4 °F 6.8 °F 24% 30.28 in 10.0 mi West 6.9 mph 10.4 mph N/A   Clear
11:55 AM 41.0 °F 37.1 °F 6.8 °F 24% 30.27 in 10.0 mi NNW 5.8 mph - N/A   Clear
12:15 PM 42.8 °F 38.6 °F 8.6 °F 25% 30.26 in 10.0 mi WSW 6.9 mph - N/A   Clear
12:35 PM 42.8 °F 37.0 °F 8.6 °F 25% 30.25 in 10.0 mi West 10.4 mph - N/A   Clear
12:55 PM 41.0 °F 36.4 °F 8.6 °F 26% 30.25 in 10.0 mi North 6.9 mph - N/A   Clear
1:15 PM 42.8 °F 37.5 °F 10.4 °F 27% 30.24 in 10.0 mi WSW 9.2 mph - N/A   Clear
1:35 PM 42.8 °F 37.5 °F 10.4 °F 27% 30.23 in 10.0 mi West 9.2 mph - N/A   Clear
1:55 PM 42.8 °F 39.3 °F 10.4 °F 27% 30.23 in 10.0 mi West 5.8 mph - N/A   Clear
2:15 PM 42.8 °F 38.0 °F 10.4 °F 27% 30.23 in 10.0 mi West 8.1 mph 18.4 mph N/A   Clear
2:35 PM 44.6 °F 40.7 °F 10.4 °F 25% 30.21 in 10.0 mi West 6.9 mph - N/A   Clear
2:55 PM 44.6 °F 39.2 °F 10.4 °F 25% 30.21 in 10.0 mi WNW 10.4 mph - N/A   Clear
3:15 PM 44.6 °F 41.4 °F 10.4 °F 25% 30.21 in 10.0 mi NW 5.8 mph - N/A   Clear
3:35 PM 42.8 °F 37.5 °F 10.4 °F 27% 30.22 in 10.0 mi West 9.2 mph - N/A   Clear
3:55 PM 44.6 °F 40.7 °F 10.4 °F 25% 30.21 in 10.0 mi WNW 6.9 mph - N/A   Clear
4:15 PM 44.6 °F 43.1 °F 10.4 °F 25% 30.21 in 10.0 mi West 3.5 mph - N/A   Clear
4:35 PM 42.8 °F 38.6 °F 10.4 °F 27% 30.22 in 10.0 mi WSW 6.9 mph - N/A   Mostly Cloudy
4:55 PM 42.8 °F 41.1 °F 10.4 °F 27% 30.22 in 10.0 mi WNW 3.5 mph - N/A   Mostly Cloudy
5:15 PM 41.0 °F - 10.4 °F 29% 30.22 in 10.0 mi Calm Calm - N/A   Scattered Clouds
5:35 PM 39.2 °F - 14.0 °F 36% 30.22 in 10.0 mi Calm Calm - N/A   Scattered Clouds
5:55 PM 35.6 °F - 17.6 °F 48% 30.22 in 10.0 mi Calm Calm - N/A   Scattered Clouds
6:15 PM 35.6 °F - 17.6 °F 48% 30.22 in 10.0 mi Calm Calm - N/A   Clear
6:35 PM 33.8 °F - 17.6 °F 52% 30.22 in 10.0 mi Calm Calm - N/A   Clear
6:55 PM 32.0 °F - 19.4 °F 60% 30.23 in 10.0 mi Calm Calm - N/A   Clear
7:15 PM 32.0 °F - 21.2 °F 64% 30.23 in 10.0 mi Calm Calm - N/A   Clear
7:35 PM 32.0 °F - 19.4 °F 60% 30.24 in 10.0 mi Calm Calm - N/A   Clear
7:55 PM 30.2 °F - 19.4 °F 64% 30.24 in 10.0 mi Calm Calm - N/A   Clear
8:15 PM 30.2 °F - 21.2 °F 69% 30.24 in 10.0 mi Calm Calm - N/A   Clear
8:35 PM 30.2 °F - 19.4 °F 64% 30.24 in 10.0 mi Calm Calm - N/A   Clear
8:55 PM 30.2 °F - 21.2 °F 69% 30.24 in 10.0 mi Calm Calm - N/A   Clear
9:15 PM 28.4 °F - 21.2 °F 74% 30.24 in 10.0 mi Calm Calm - N/A   Clear
9:35 PM 28.4 °F - 19.4 °F 69% 30.25 in 10.0 mi Calm Calm - N/A   Clear
9:55 PM 28.4 °F - 19.4 °F 69% 30.25 in 10.0 mi Calm Calm - N/A   Clear
10:15 PM 28.4 °F - 21.2 °F 74% 30.25 in 10.0 mi Calm Calm - N/A   Clear
10:35 PM 28.4 °F - 19.4 °F 69% 30.26 in 10.0 mi Calm Calm - N/A   Clear
10:55 PM 28.4 °F - 19.4 °F 69% 30.25 in 10.0 mi Calm Calm - N/A   Clear
11:15 PM 26.6 °F - 19.4 °F 74% 30.25 in 10.0 mi Calm Calm - N/A   Clear
11:35 PM 26.6 °F - 19.4 °F 74% 30.25 in 10.0 mi Calm Calm - N/A   Clear
11:55 PM 26.6 °F - 21.2 °F 80% 30.25 in 10.0 mi Calm Calm - N/A   Clear